2023/01/30 00:00:00,71.0,-5.8
2023/01/30 00:10:00,71.0,-4.5
2023/01/30 00:20:00,71.1,-4.6
2023/01/30 00:30:00,71.1,-4.7
2023/01/30 00:40:00,71.1,-5.5
2023/01/30 00:50:00,71.1,-5.6
2023/01/30 01:00:00,71.0,-5.8
2023/01/30 01:10:00,70.9,-4.7
2023/01/30 01:20:00,70.8,-4.7
2023/01/30 01:30:00,70.8,-4.3
2023/01/30 01:40:00,70.7,-4.1
2023/01/30 01:50:00,70.9,-3.2
2023/01/30 02:00:00,70.7,-4.3
2023/01/30 02:10:00,70.7,-4.7
2023/01/30 02:20:00,70.7,-4.6
2023/01/30 02:30:00,70.8,-4.2
2023/01/30 02:40:00,70.7,-4.4
2023/01/30 02:50:00,70.7,-4.4
2023/01/30 03:00:00,70.7,-4.6
2023/01/30 03:10:00,70.6,-4.3
2023/01/30 03:20:00,70.4,-4.2
2023/01/30 03:30:00,70.4,-3.9
2023/01/30 03:40:00,70.5,-4.3
2023/01/30 03:50:00,70.5,-4.2
2023/01/30 04:00:00,70.4,-4.3
2023/01/30 04:10:00,70.5,-4.1
2023/01/30 04:20:00,70.6,-3.4
2023/01/30 04:30:00,70.7,-3.6
2023/01/30 04:40:00,71.1,-3.7
2023/01/30 04:50:00,71.1,-4.0
2023/01/30 05:00:00,71.3,-4.0
2023/01/30 05:10:00,71.6,-4.0
2023/01/30 05:20:00,71.9,-3.9
2023/01/30 05:30:00,72.4,-3.7
2023/01/30 05:40:00,73.0,-3.3
2023/01/30 05:50:00,73.1,-3.0
2023/01/30 06:00:00,73.4,-2.7
2023/01/30 06:10:00,73.8,-2.7
2023/01/30 06:20:00,73.8,-2.9
2023/01/30 06:30:00,73.7,-2.5
2023/01/30 06:40:00,73.7,-2.8
2023/01/30 06:50:00,73.7,-3.0
2023/01/30 07:00:00,73.5,-2.8
2023/01/30 07:10:00,73.5,-3.4
2023/01/30 07:20:00,73.5,-3.5
2023/01/30 07:30:00,73.6,-3.7
2023/01/30 07:40:00,74.3,-3.2
2023/01/30 07:50:00,74.7,-2.6
2023/01/30 08:00:00,74.9,-2.9
2023/01/30 08:10:00,74.8,-2.6
2023/01/30 08:20:00,74.8,-2.4
2023/01/30 08:30:00,74.8,-2.4
2023/01/30 08:40:00,74.8,-2.3
2023/01/30 08:50:00,74.5,-2.1
2023/01/30 09:00:00,74.9,-2.4
2023/01/30 09:10:00,75.8,-2.9
2023/01/30 09:20:00,76.5,-2.5
2023/01/30 09:30:00,77.4,-2.3
2023/01/30 09:40:00,78.1,-1.7
2023/01/30 09:50:00,78.2,-2.2
2023/01/30 10:00:00,78.2,-2.4
2023/01/30 10:10:00,79.1,-2.4
2023/01/30 10:20:00,79.9,-2.4
2023/01/30 10:30:00,80.4,-2.2
2023/01/30 10:40:00,80.5,-2.4
2023/01/30 10:50:00,81.3,-2.6
2023/01/30 11:00:00,82.5,-1.9
2023/01/30 11:10:00,82.7,-0.9
2023/01/30 11:20:00,82.6,-1.0
2023/01/30 11:30:00,82.3,-0.9
2023/01/30 11:40:00,82.5,-1.3
2023/01/30 11:50:00,82.4,-0.7
2023/01/30 12:00:00,82.2,-1.4
2023/01/30 12:10:00,82.7,-1.8
2023/01/30 12:20:00,83.5,-0.9
2023/01/30 12:30:00,83.7,-1.1
2023/01/30 12:40:00,84.4,-1.2
2023/01/30 12:50:00,85.1,-0.4
2023/01/30 13:00:00,85.0,-1.3
2023/01/30 13:10:00,85.8,-1.7
2023/01/30 13:20:00,86.6,-1.5
2023/01/30 13:30:00,87.0,-1.2
2023/01/30 13:40:00,87.3,-1.7
2023/01/30 13:50:00,87.4,-1.7
2023/01/30 14:00:00,87.5,-2.2
2023/01/30 14:10:00,87.8,-2.2
2023/01/30 14:20:00,87.9,-1.2
2023/01/30 14:30:00,87.6,-1.4
2023/01/30 14:40:00,87.8,-2.1
2023/01/30 14:50:00,88.0,-2.0
2023/01/30 15:00:00,88.2,-2.5
2023/01/30 15:10:00,88.3,-1.6
2023/01/30 15:20:00,88.2,-1.6
2023/01/30 15:30:00,87.9,-1.7
2023/01/30 15:40:00,87.7,-2.0
2023/01/30 15:50:00,87.8,-2.3
2023/01/30 16:00:00,87.7,-2.8
2023/01/30 16:10:00,87.5,-3.1
2023/01/30 16:20:00,87.4,-2.9
2023/01/30 16:30:00,87.2,-2.6
2023/01/30 16:40:00,87.2,-2.6
2023/01/30 16:50:00,86.9,-2.8
2023/01/30 17:00:00,86.9,-2.6
2023/01/30 17:10:00,87.0,-2.7
2023/01/30 17:20:00,86.8,-2.5
2023/01/30 17:30:00,86.6,-2.8
2023/01/30 17:40:00,86.4,-3.3
2023/01/30 17:50:00,86.0,-3.5
2023/01/30 18:00:00,85.9,-3.1
2023/01/30 18:10:00,85.7,-3.1
2023/01/30 18:20:00,85.6,-3.1
2023/01/30 18:30:00,85.5,-3.2
2023/01/30 18:40:00,85.2,-3.3
2023/01/30 18:50:00,85.0,-3.1
2023/01/30 19:00:00,85.1,-3.4
2023/01/30 19:10:00,85.1,-3.5
2023/01/30 19:20:00,85.0,-3.3
2023/01/30 19:30:00,84.7,-3.5
2023/01/30 19:40:00,84.6,-3.3
2023/01/30 19:50:00,84.5,-3.5
2023/01/30 20:00:00,84.3,-3.4
2023/01/30 20:10:00,84.6,-3.5
2023/01/30 20:20:00,84.8,-3.4
2023/01/30 20:30:00,84.7,-3.5
2023/01/30 20:40:00,84.5,-3.6
2023/01/30 21:00:00,84.0,-3.5
2023/01/30 21:10:00,84.3,-3.5
2023/01/30 21:20:00,84.3,-3.2
2023/01/30 21:30:00,84.3,-3.2
2023/01/30 21:40:00,84.2,-3.2
2023/01/30 21:50:00,84.2,-3.5
2023/01/30 22:00:00,84.2,-3.5
2023/01/30 22:10:00,83.8,-3.5
2023/01/30 22:20:00,83.6,-3.2
2023/01/30 22:30:00,83.4,-3.7
2023/01/30 22:40:00,83.3,-3.7
2023/01/30 22:50:00,83.2,-3.5
2023/01/30 23:00:00,83.0,-3.9
2023/01/30 23:10:00,82.9,-3.5
2023/01/30 23:20:00,82.8,-3.6
2023/01/30 23:30:00,82.7,-3.5
2023/01/30 23:40:00,82.7,-3.5
2023/01/30 23:50:00,82.6,-4.0
